When you browse on this site, cookies collect data to enhance your experience and personalize the content and advertising you see.
Visit our Privacy Policy to learn more. By continuing to use the site, you agree to this use of cookies and data.
  • In Latvia
  • List of Countries
  • For 7 days
  • Water Temperature
  • Weather Map
  • Weather Widgets
  • user-avatar
    Login

    Hourly Weather La Rioja

    Today, 18 February, Tuesday

    Time Temperature Precipitation Wind Pressure Humidity
    00:00 +28°C° 1.2 mm 8 mps 712 mmHg 69%
    01:00 +27°C° 1.2 mm 7 mps 712 mmHg 70%
    02:00 +26°C° 1.2 mm 6 mps 713 mmHg 72%
    03:00 +26°C° 0.3 mm 5 mps 714 mmHg 68%
    04:00 +26°C° 0.3 mm 4 mps 715 mmHg 64%
    05:00 +25°C° 0.3 mm 3 mps 715 mmHg 60%
    06:00 +25°C° 0 mm 3 mps 716 mmHg 59%
    07:00 +25°C° 0 mm 3 mps 716 mmHg 58%
    08:00 +25°C° 0 mm 3 mps 717 mmHg 57%
    09:00 +26°C° 0 mm 3 mps 717 mmHg 52%
    10:00 +27°C° 0 mm 3 mps 717 mmHg 47%
    11:00 +28°C° 0 mm 3 mps 717 mmHg 42%
    12:00 +28°C° 0 mm 3 mps 717 mmHg 41%
    13:00 +28°C° 0 mm 3 mps 716 mmHg 40%
    14:00 +29°C° 0 mm 3 mps 716 mmHg 38%
    15:00 +29°C° 0 mm 3 mps 715 mmHg 39%
    16:00 +29°C° 0 mm 3 mps 715 mmHg 40%
    17:00 +29°C° 0 mm 2 mps 714 mmHg 41%
    18:00 +28°C° 0 mm 2 mps 714 mmHg 46%
    19:00 +27°C° 0 mm 2 mps 714 mmHg 50%
    20:00 +26°C° 0 mm 2 mps 714 mmHg 55%
    21:00 +26°C° 0 mm 2 mps 714 mmHg 56%
    22:00 +26°C° 0 mm 2 mps 714 mmHg 57%
    23:00 +26°C° 0 mm 2 mps 714 mmHg 58%

    Tomorrow, 19 February, Wednesday

    Time Temperature Precipitation Wind Pressure Humidity
    00:00 +25°C° 0 mm 1 mps 714 mmHg 60%
    01:00 +25°C° 0 mm 1 mps 713 mmHg 62%
    02:00 +24°C° 0 mm 1 mps 713 mmHg 64%
    03:00 +24°C° 0 mm 1 mps 712 mmHg 65%
    04:00 +24°C° 0 mm 1 mps 712 mmHg 66%
    05:00 +22°C° 0 mm 0 mps 712 mmHg 67%
    06:00 +22°C° 0 mm 0 mps 712 mmHg 63%
    07:00 +23°C° 0 mm 0 mps 713 mmHg 58%
    08:00 +24°C° 0 mm 0 mps 713 mmHg 54%
    09:00 +28°C° 0 mm 1 mps 713 mmHg 52%
    10:00 +29°C° 0 mm 1 mps 713 mmHg 50%
    11:00 +30°C° 0 mm 2 mps 713 mmHg 47%
    12:00 +31°C° 0 mm 2 mps 712 mmHg 46%
    13:00 +32°C° 0 mm 2 mps 711 mmHg 45%
    14:00 +34°C° 0 mm 2 mps 711 mmHg 43%
    15:00 +34°C° 0 mm 2 mps 710 mmHg 43%
    16:00 +34°C° 0 mm 2 mps 710 mmHg 43%
    17:00 +35°C° 0 mm 2 mps 709 mmHg 43%
    18:00 +32°C° 0 mm 2 mps 710 mmHg 47%
    19:00 +31°C° 0 mm 3 mps 711 mmHg 52%
    20:00 +30°C° 0 mm 3 mps 711 mmHg 56%
    21:00 +29°C° 0 mm 2 mps 712 mmHg 62%
    22:00 +29°C° 0 mm 1 mps 713 mmHg 67%
    23:00 +28°C° 0 mm 1 mps 713 mmHg 73%

    Day after tomorrow, 20 February, Thursday

    Time Temperature Precipitation Wind Pressure Humidity
    00:00 +28°C° 0 mm 1 mps 713 mmHg 74%
    01:00 +27°C° 0 mm 1 mps 713 mmHg 76%
    02:00 +27°C° 0 mm 2 mps 713 mmHg 77%
    03:00 +27°C° 0 mm 2 mps 713 mmHg 78%
    04:00 +26°C° 0 mm 2 mps 713 mmHg 79%
    05:00 +26°C° 0 mm 2 mps 714 mmHg 81%
    06:00 +27°C° 0 mm 2 mps 714 mmHg 77%
    07:00 +27°C° 0 mm 2 mps 715 mmHg 74%
    08:00 +28°C° 0 mm 3 mps 715 mmHg 71%
    09:00 +29°C° 0.2 mm 3 mps 715 mmHg 66%
    10:00 +31°C° 0.2 mm 3 mps 716 mmHg 60%
    11:00 +33°C° 0.2 mm 3 mps 716 mmHg 55%
    12:00 +34°C° 0.4 mm 3 mps 716 mmHg 52%
    13:00 +34°C° 0.4 mm 3 mps 715 mmHg 50%
    14:00 +35°C° 0.4 mm 3 mps 715 mmHg 47%
    15:00 +34°C° 0.9 mm 3 mps 715 mmHg 52%
    16:00 +33°C° 0.9 mm 3 mps 714 mmHg 56%
    17:00 +31°C° 0.9 mm 3 mps 714 mmHg 61%
    18:00 +30°C° 1 mm 3 mps 715 mmHg 63%
    19:00 +29°C° 1 mm 3 mps 715 mmHg 66%
    20:00 +28°C° 1 mm 3 mps 716 mmHg 69%
    21:00 +28°C° 0.3 mm 3 mps 717 mmHg 66%
    22:00 +28°C° 0.3 mm 3 mps 718 mmHg 62%
    23:00 +28°C° 0.3 mm 2 mps 719 mmHg 59%

    21 February, Friday

    Time Temperature Precipitation Wind Pressure Humidity
    00:00 +27°C° 0 mm 3 mps 719 mmHg 60%
    01:00 +27°C° 0 mm 3 mps 719 mmHg 60%
    02:00 +26°C° 0 mm 4 mps 719 mmHg 61%
    09:00 +23°C° 0 mm 2 mps 721 mmHg 51%
    10:00 +24°C° 0 mm 2 mps 721 mmHg 54%
    11:00 +25°C° 0 mm 2 mps 721 mmHg 53%
    12:00 +25°C° 0 mm 2 mps 721 mmHg 52%
    13:00 +26°C° 0 mm 3 mps 720 mmHg 52%
    14:00 +26°C° 0 mm 3 mps 720 mmHg 51%
    15:00 +26°C° 0 mm 3 mps 719 mmHg 50%
    16:00 +26°C° 0 mm 2 mps 718 mmHg 49%
    17:00 +27°C° 0 mm 2 mps 717 mmHg 48%
    18:00 +26°C° 0 mm 2 mps 718 mmHg 51%
    19:00 +25°C° 0 mm 2 mps 718 mmHg 54%
    20:00 +24°C° 0 mm 1 mps 718 mmHg 57%
    21:00 +24°C° 0 mm 1 mps 719 mmHg 55%
    22:00 +24°C° 0 mm 1 mps 719 mmHg 53%
    23:00 +24°C° 0 mm 1 mps 719 mmHg 51%

    22 February, Saturday

    Time Temperature Precipitation Wind Pressure Humidity
    00:00 +24°C° 0 mm 1 mps 719 mmHg 52%
    01:00 +24°C° 0 mm 1 mps 718 mmHg 52%
    02:00 +23°C° 0 mm 2 mps 718 mmHg 52%
    03:00 +23°C° 0 mm 1 mps 717 mmHg 53%
    04:00 +22°C° 0 mm 1 mps 717 mmHg 55%
    05:00 +22°C° 0 mm 1 mps 716 mmHg 56%
    06:00 +22°C° 0 mm 1 mps 717 mmHg 54%
    07:00 +23°C° 0 mm 1 mps 717 mmHg 52%
    08:00 +23°C° 0 mm 2 mps 717 mmHg 50%
    09:00 +24°C° 0 mm 2 mps 717 mmHg 48%
    10:00 +25°C° 0 mm 2 mps 717 mmHg 47%
    11:00 +27°C° 0 mm 2 mps 717 mmHg 45%
    12:00 +28°C° 0 mm 2 mps 716 mmHg 44%
    13:00 +29°C° 0 mm 2 mps 715 mmHg 43%
    14:00 +30°C° 0 mm 2 mps 715 mmHg 42%
    15:00 +30°C° 0 mm 3 mps 714 mmHg 42%
    16:00 +30°C° 0 mm 3 mps 713 mmHg 41%
    17:00 +30°C° 0 mm 3 mps 713 mmHg 41%
    18:00 +29°C° 0 mm 3 mps 713 mmHg 44%
    19:00 +28°C° 0 mm 3 mps 713 mmHg 46%
    20:00 +27°C° 0 mm 3 mps 714 mmHg 49%
    21:00 +26°C° 0 mm 3 mps 714 mmHg 51%
    22:00 +25°C° 0 mm 3 mps 714 mmHg 54%
    23:00 +24°C° 0 mm 2 mps 715 mmHg 57%

    23 February, Sunday

    Time Temperature Precipitation Wind Pressure Humidity
    00:00 +24°C° 0 mm 2 mps 714 mmHg 59%
    01:00 +23°C° 0 mm 1 mps 714 mmHg 61%
    02:00 +23°C° 0 mm 1 mps 713 mmHg 62%
    03:00 +23°C° 0 mm 1 mps 713 mmHg 64%
    04:00 +22°C° 0 mm 1 mps 713 mmHg 65%
    05:00 +20°C° 0 mm 0 mps 712 mmHg 66%
    06:00 +23°C° 0 mm 1 mps 712 mmHg 62%
    07:00 +23°C° 0 mm 1 mps 713 mmHg 58%
    08:00 +24°C° 0 mm 1 mps 713 mmHg 55%
    09:00 +25°C° 0 mm 1 mps 712 mmHg 52%
    10:00 +27°C° 0 mm 2 mps 712 mmHg 50%
    11:00 +28°C° 0 mm 2 mps 712 mmHg 47%
    12:00 +29°C° 0 mm 2 mps 711 mmHg 45%
    13:00 +30°C° 0 mm 2 mps 710 mmHg 44%
    14:00 +31°C° 0 mm 2 mps 709 mmHg 42%
    15:00 +32°C° 0 mm 2 mps 709 mmHg 41%
    16:00 +32°C° 0 mm 2 mps 708 mmHg 41%
    17:00 +32°C° 0 mm 2 mps 707 mmHg 41%
    18:00 +31°C° 0 mm 2 mps 707 mmHg 44%
    19:00 +30°C° 0 mm 2 mps 708 mmHg 48%
    20:00 +28°C° 0 mm 2 mps 708 mmHg 52%
    21:00 +28°C° 0 mm 1 mps 708 mmHg 55%
    22:00 +27°C° 0 mm 1 mps 709 mmHg 58%
    23:00 +26°C° 0 mm 1 mps 709 mmHg 62%
    Show more